{"data":{"norad_id":59460,"epoch":"2026-09-21T14:14:24.426528Z","epoch_age_seconds":70390,"freshness":"FRESH","line1":"1 59460U 24068F   26264.59333827  .00000459  00000+0  26205-4 0  9990","line2":"2 59460  43.0037   4.7003 0000918 277.5456  82.5291 15.27582938138527","mean_motion":15.27582938,"eccentricity":9.18e-5,"inclination_deg":43.0037,"raan_deg":4.7003,"arg_perigee_deg":277.5456,"mean_anomaly_deg":82.5291,"bstar":2.6205e-5,"rev_number":13852,"period_min":94.26656741043,"perigee_km":482.4104425488,"apogee_km":483.67015470083,"semimajor_km":6861.1772986248,"source":"CELESTRAK","updated_at":"2026-09-22T09:00:48.944374Z"}}